| time (UTC) | temp F | wind direction | speed knots | gust knots | rain 1hr in | rain 24hr in | rain mn in | humidity % | barometer mb |
| 20260905160950 | 87 | 67 | 5.2 | 11.3 | 0.00 | 0.00 | 0.00 | 96 | 1011.5 |
| 20260905155836 | 87 | 67 | 20.9 | 47.8 | 0.00 | 0.00 | 0.00 | 95 | 1011.7 |
| 20260905154601 | 87 | 0 | 23.5 | 52.1 | 0.00 | 0.00 | 0.00 | 94 | 1011.7 |
| 20260905152835 | 87 | 112 | 2.6 | 7.0 | 0.00 | 0.00 | 0.00 | 94 | 1011.5 |
| 20260905151835 | 87 | 112 | 7.0 | 16.5 | 0.00 | 0.00 | 0.00 | 94 | 1011.3 |
| 20260905150834 | 87 | 202 | 15.6 | 34.8 | 0.00 | 0.00 | 0.00 | 94 | 1011.3 |
| 20260905145835 | 87 | 112 | 1.7 | 5.2 | 0.00 | 0.00 | 0.00 | 93 | 1011.1 |
| 20260905144834 | 87 | 67 | 4.3 | 10.4 | 0.00 | 0.00 | 0.00 | 92 | 1011.0 |
| 20260905142917 | 88 | 202 | 2.6 | 6.1 | 0.00 | 0.00 | 0.00 | 91 | 1010.6 |
| 20260905141913 | 87 | 315 | 7.8 | 18.2 | 0.00 | 0.00 | 0.00 | 91 | 1010.6 |
| 20260905140913 | 88 | 202 | 4.3 | 11.3 | 0.00 | 0.00 | 0.00 | 90 | 1010.6 |
| 20260905135913 | 88 | 0 | 0.0 | 0.0 | 0.00 | 0.00 | 0.00 | 89 | 1010.2 |
| 20260905134913 | 88 | 315 | 25.2 | 57.4 | 0.00 | 0.00 | 0.00 | 89 | 1010.2 |
| 20260905133913 | 88 | 202 | 7.0 | 16.5 | 0.00 | 0.00 | 0.00 | 88 | 1010.0 |
| 20260905132024 | 88 | 0 | 4.3 | 11.3 | 0.00 | 0.00 | 0.00 | 89 | 1009.8 |
| 20260905131024 | 88 | 112 | 9.6 | 21.7 | 0.00 | 0.00 | 0.00 | 88 | 1009.7 |
| 20260905130024 | 88 | 202 | 5.2 | 12.2 | 0.00 | 0.00 | 0.00 | 87 | 1009.8 |
| 20260905124448 | 88 | 202 | 4.3 | 10.4 | 0.00 | 0.00 | 0.00 | 87 | 1009.9 |
| 20260905123448 | 88 | 202 | 2.6 | 6.1 | 0.00 | 0.00 | 0.00 | 87 | 1009.5 |
| 20260905122448 | 88 | 112 | 4.3 | 10.4 | 0.00 | 0.00 | 0.00 | 86 | 1009.5 |
| 20260905121122 | 88 | 202 | 6.1 | 13.9 | 0.00 | 0.00 | 0.00 | 86 | 1009.5 |
| 20260905115751 | 88 | 67 | 19.1 | 43.4 | 0.00 | 0.00 | 0.00 | 86 | 1009.3 |
| 20260905114751 | 88 | 112 | 13.0 | 29.5 | 0.00 | 0.00 | 0.00 | 85 | 1009.4 |
| 20260905113751 | 88 | 67 | 1.7 | 5.2 | 0.00 | 0.00 | 0.00 | 85 | 1009.3 |
| 20260905112033 | 89 | 315 | 9.6 | 20.9 | 0.00 | 0.00 | 0.00 | 85 | 1009.2 |
| 20260905111033 | 89 | 67 | 10.4 | 24.3 | 0.00 | 0.00 | 0.00 | 84 | 1009.2 |
| 20260905104054 | 89 | 0 | 0.0 | 0.0 | 0.00 | 0.00 | 0.00 | 82 | 1008.5 |
| 20260905102532 | 90 | 67 | 0.0 | 0.0 | 0.00 | 0.00 | 0.00 | 81 | 1008.1 |
| 20260905101533 | 90 | 67 | 1.7 | 3.5 | 0.00 | 0.00 | 0.00 | 81 | 1007.9 |
| 20260905095408 | 90 | 315 | 12.2 | 26.9 | 0.00 | 0.00 | 0.00 | 81 | 1008.0 |
| 20260905094408 | 90 | 202 | 16.5 | 37.4 | 0.00 | 0.00 | 0.00 | 80 | 1008.0 |
| 20260905093408 | 91 | 67 | 14.8 | 33.9 | 0.00 | 0.00 | 0.00 | 80 | 1007.9 |
| 20260905092408 | 91 | 315 | 7.0 | 16.5 | 0.00 | 0.00 | 0.00 | 80 | 1007.8 |
| 20260905090719 | 91 | 202 | 33.9 | 75.6 | 0.00 | 0.00 | 0.00 | 81 | 1007.9 |
| 20260905085719 | 91 | 315 | 15.6 | 36.5 | 0.00 | 0.00 | 0.00 | 80 | 1007.9 |
| 20260905084023 | 92 | 67 | 11.3 | 26.1 | 0.00 | 0.00 | 0.00 | 80 | 1008.0 |
| 20260905082133 | 91 | 202 | 5.2 | 13.0 | 0.00 | 0.00 | 0.00 | 79 | 1008.2 |
| 20260905081132 | 91 | 67 | 3.5 | 8.7 | 0.00 | 0.00 | 0.00 | 80 | 1008.3 |
| 20260905080132 | 91 | 202 | 3.5 | 8.7 | 0.00 | 0.00 | 0.00 | 80 | 1008.2 |
| 20260905075132 | 92 | 67 | 14.8 | 33.9 | 0.00 | 0.00 | 0.00 | 78 | 1008.1 |
| 20260905074132 | 92 | 135 | 0.0 | 0.0 | 0.00 | 0.00 | 0.00 | 78 | 1008.2 |
| 20260905071851 | 92 | 67 | 29.5 | 66.9 | 0.00 | 0.00 | 0.00 | 78 | 1008.4 |
| 20260905070852 | 91 | 202 | 28.7 | 64.3 | 0.00 | 0.00 | 0.00 | 78 | 1008.6 |
| 20260905065852 | 93 | 202 | 9.6 | 21.7 | 0.00 | 0.00 | 0.00 | 77 | 1008.7 |
| 20260905064405 | 94 | 112 | 7.8 | 17.4 | 0.00 | 0.00 | 0.00 | 76 | 1008.9 |
| 20260905063404 | 94 | 67 | 17.4 | 40.0 | 0.00 | 0.00 | 0.00 | 75 | 1009.1 |
| 20260905062405 | 93 | 67 | 7.0 | 16.5 | 0.00 | 0.00 | 0.00 | 76 | 1009.4 |
| 20260905061403 | 94 | 112 | 7.0 | 16.5 | 0.00 | 0.00 | 0.00 | 76 | 1009.6 |
| 20260905060403 | 93 | 0 | 19.1 | 43.4 | 0.00 | 0.00 | 0.00 | 77 | 1009.8 |
| 20260905055403 | 93 | 202 | 20.9 | 47.8 | 0.00 | 0.00 | 0.00 | 77 | 1010.0 |
| 20260905053833 | 93 | 202 | 9.6 | 21.7 | 0.00 | 0.00 | 0.00 | 77 | 1010.4 |
| 20260905052833 | 93 | 0 | 25.2 | 56.5 | 0.00 | 0.00 | 0.00 | 77 | 1010.6 |
| 20260905051833 | 93 | 112 | 0.9 | 2.6 | 0.00 | 0.00 | 0.00 | 77 | 1010.9 |
| 20260905045930 | 92 | 0 | 0.0 | 0.0 | 0.00 | 0.00 | 0.00 | 78 | 1011.2 |
| 20260905044932 | 92 | 202 | 6.1 | 13.9 | 0.00 | 0.00 | 0.00 | 78 | 1011.3 |
| 20260905043928 | 93 | 315 | 30.4 | 67.8 | 0.00 | 0.00 | 0.00 | 76 | 1011.3 |
| 20260905042928 | 93 | 67 | 12.2 | 28.7 | 0.00 | 0.00 | 0.00 | 77 | 1011.4 |
| 20260905041111 | 92 | 0 | 6.1 | 13.9 | 0.00 | 0.00 | 0.00 | 78 | 1011.6 |
| 20260905035725 | 91 | 67 | 5.2 | 13.0 | 0.00 | 0.00 | 0.00 | 81 | 1011.7 |
| 20260905032059 | 93 | 315 | 6.1 | 13.9 | 0.00 | 0.00 | 0.00 | 77 | 1011.9 |
| 20260905031059 | 92 | 0 | 0.0 | 0.0 | 0.00 | 0.00 | 0.00 | 78 | 1011.9 |
| 20260905023714 | 90 | 315 | 20.9 | 47.8 | 0.00 | 0.00 | 0.00 | 81 | 1012.2 |
| 20260905021728 | 91 | 202 | 0.0 | 0.0 | 0.00 | 0.00 | 0.00 | 79 | 1012.1 |
| 20260905020420 | 92 | 202 | 6.1 | 13.9 | 0.00 | 0.00 | 0.00 | 80 | 1012.0 |
| 20260905015419 | 92 | 202 | 7.8 | 18.2 | 0.00 | 0.00 | 0.00 | 80 | 1011.9 |
| 20260905014419 | 92 | 315 | 0.9 | 1.7 | 0.00 | 0.00 | 0.00 | 80 | 1011.8 |
| 20260905013419 | 91 | 202 | 4.3 | 11.3 | 0.00 | 0.00 | 0.00 | 81 | 1011.8 |
| 20260905012033 | 90 | 202 | 2.6 | 7.0 | 0.00 | 0.00 | 0.00 | 82 | 1011.9 |
| 20260905011033 | 90 | 67 | 1.7 | 3.5 | 0.00 | 0.00 | 0.00 | 83 | 1011.7 |
| 20260905005917 | 90 | 202 | 6.1 | 13.9 | 0.00 | 0.00 | 0.00 | 83 | 1011.5 |
| 20260905004911 | 89 | 202 | 1.7 | 3.5 | 0.00 | 0.00 | 0.00 | 84 | 1011.3 |
| 20260905003911 | 89 | 0 | 4.3 | 10.4 | 0.00 | 0.00 | 0.00 | 86 | 1011.2 |
| 20260905002911 | 89 | 67 | 0.0 | 0.0 | 0.00 | 0.00 | 0.00 | 85 | 1011.0 |
| 20260905001905 | 89 | 315 | 0.0 | 0.0 | 0.00 | 0.00 | 0.00 | 84 | 1010.9 |
| 20260905000901 | 89 | 67 | 1.7 | 5.2 | 0.00 | 0.00 | 0.00 | 84 | 1010.8 |
| 20260904235901 | 89 | 315 | 0.0 | 0.0 | 0.00 | 0.00 | 0.00 | 83 | 1010.7 |
| 20260904234441 | 88 | 0 | 0.0 | 0.0 | 0.00 | 0.00 | 0.00 | 84 | 1010.6 |
| 20260904233441 | 89 | 202 | 0.0 | 0.0 | 0.00 | 0.00 | 0.00 | 83 | 1010.4 |
| 20260904232440 | 88 | 202 | 0.0 | 0.0 | 0.00 | 0.00 | 0.00 | 83 | 1010.4 |
| 20260904231440 | 89 | 202 | 0.0 | 0.0 | 0.00 | 0.00 | 0.00 | 83 | 1010.3 |
| 20260904230440 | 89 | 0 | 0.0 | 0.0 | 0.00 | 0.00 | 0.00 | 82 | 1010.2 |
| 20260904225440 | 89 | 315 | 0.0 | 0.0 | 0.00 | 0.00 | 0.00 | 82 | 1010.2 |
| 20260904224107 | 88 | 202 | 0.0 | 0.0 | 0.00 | 0.00 | 0.00 | 83 | 1010.1 |
| 20260904223107 | 89 | 202 | 0.0 | 0.0 | 0.00 | 0.00 | 0.00 | 82 | 1010.0 |
| 20260904222108 | 89 | 0 | 0.0 | 0.0 | 0.00 | 0.00 | 0.00 | 82 | 1009.9 |
| 20260904220529 | 89 | 67 | 0.0 | 0.0 | 0.00 | 0.00 | 0.00 | 83 | 1009.7 |
| 20260904215529 | 89 | 0 | 5.2 | 12.2 | 0.00 | 0.00 | 0.00 | 83 | 1009.5 |
| 20260904214529 | 89 | 202 | 2.6 | 6.1 | 0.00 | 0.00 | 0.00 | 83 | 1009.4 |
| 20260904213529 | 89 | 0 | 2.6 | 5.2 | 0.00 | 0.00 | 0.00 | 84 | 1009.4 |
| 20260904212528 | 89 | 202 | 3.5 | 7.8 | 0.00 | 0.00 | 0.00 | 83 | 1009.4 |
| 20260904211531 | 89 | 202 | 1.7 | 4.3 | 0.00 | 0.00 | 0.00 | 85 | 1009.2 |
| 20260904210527 | 89 | 67 | 0.0 | 0.0 | 0.00 | 0.00 | 0.00 | 84 | 1009.2 |
| 20260904205527 | 89 | 202 | 1.7 | 4.3 | 0.00 | 0.00 | 0.00 | 85 | 1009.0 |
| 20260904203831 | 90 | 67 | 0.0 | 0.0 | 0.00 | 0.00 | 0.00 | 87 | 1009.0 |
| 20260904201812 | 90 | 67 | 0.0 | 0.0 | 0.00 | 0.00 | 0.00 | 89 | 1009.1 |
| 20260904193508 | 86 | 270 | 0.0 | 0.0 | 0.00 | 0.00 | 0.00 | 97 | 1009.3 |
| 20260904192508 | 86 | 270 | 0.0 | 0.0 | 0.00 | 0.00 | 0.00 | 96 | 1009.3 |
| 20260904191508 | 86 | 270 | 0.0 | 0.0 | 0.00 | 0.00 | 0.00 | 97 | 1009.4 |
| 20260904190243 | 86 | 270 | 0.0 | 0.0 | 0.00 | 0.00 | 0.00 | 96 | 1009.5 |
| 20260904184856 | 86 | 270 | 0.0 | 0.0 | 0.00 | 0.00 | 0.00 | 97 | 1009.6 |
| 20260904183855 | 86 | 270 | 0.0 | 0.0 | 0.00 | 0.00 | 0.00 | 97 | 1009.7 |
| 20260904182619 | 86 | 270 | 0.0 | 0.0 | 0.00 | 0.00 | 0.00 | 97 | 1009.7 |
| 20260904181619 | 86 | 0 | 0.0 | 0.0 | 0.00 | 0.00 | 0.00 | 96 | 1009.7 |
| 20260904180544 | 86 | 202 | 0.0 | 0.0 | 0.00 | 0.00 | 0.00 | 96 | 1009.7 |
| 20260904175542 | 86 | 202 | 0.0 | 0.0 | 0.00 | 0.00 | 0.00 | 96 | 1009.9 |
| 20260904173825 | 86 | 67 | 0.0 | 0.0 | 0.00 | 0.00 | 0.00 | 95 | 1009.9 |
| 20260904172825 | 87 | 67 | 0.0 | 0.0 | 0.00 | 0.00 | 0.00 | 95 | 1010.1 |
| 20260904171654 | 87 | 67 | 0.0 | 0.0 | 0.00 | 0.00 | 0.00 | 95 | 1010.2 |
| 20260904170654 | 86 | 67 | 0.0 | 0.0 | 0.00 | 0.00 | 0.00 | 95 | 1010.3 |
| 20260904165654 | 87 | 67 | 0.0 | 0.0 | 0.00 | 0.00 | 0.00 | 94 | 1010.2 |
| 20260904164654 | 87 | 67 | 0.0 | 0.0 | 0.00 | 0.00 | 0.00 | 94 | 1010.3 |
| 20260904163653 | 87 | 67 | 0.0 | 0.0 | 0.00 | 0.00 | 0.00 | 93 | 1010.2 |
| 20260904162654 | 87 | 67 | 0.0 | 0.0 | 0.00 | 0.00 | 0.00 | 93 | 1010.5 |